Meteo Giornale » Osservazioni meteo Francia » Melun

ore: 18:30 - Osservazioni Meteo Melun
Lat. 48° 37' N Lon. 2° 41' E Alt. 95 metri s.l.m.

sereno

23 °C

Sereno

Temp. 24 Ore

17 °C

26 °C

Nord-Ovest

18.5 Km/h

Dew point 13 °C

Umidità 53 %

Visibilità  10 Km

Il sole sorge alle ore 07:05

Il sole tramonta alle ore 20:34

Data e Ora Cielo e Fenomeni T °C DP °C Um. % Pres. hPa Vis. km Vento km/h
Oggi h: 18:30 sereno Sereno 23 13 53 1018 10 NO 18.5
Oggi h: 18:00 sereno Sereno 23 14 56 1018 10 N/NO 25.9
Oggi h: 17:30 sereno Sereno 24 12 47 1018 10 O 29.6
Oggi h: 17:00 sereno Sereno 23 12 49 1017 10 O 18.5
Oggi h: 16:30 sereno Sereno 23 13 53 1017 10 O/NO 22.2
Oggi h: 16:00 sereno Sereno 25 11 41 1017 10 O/SO 31.5
Oggi h: 15:30 sereno Sereno 24 12 47 1017 10 O/SO 33.3
Oggi h: 15:00 sereno Sereno 25 14 50 1017 10 O 31.5
Oggi h: 14:30 molto_nuvoloso Molto Nuvoloso 26 13 44 1017 10 O/SO 35.2
Oggi h: 14:00 sereno Sereno 24 12 47 1017 10 O 29.6
Oggi h: 13:30 sereno Sereno 25 13 47 1016 10 O/SO 35.2
Oggi h: 13:00 nuvoloso Nuvoloso 24 13 50 1016 10 O/SO 35.2
Oggi h: 12:30 nuvoloso Nuvoloso 24 14 53 1016 10 O/SO 35.2
Oggi h: 12:00 molto_nuvoloso Molto Nuvoloso 23 14 56 1016 10 O/SO 33.3
Oggi h: 11:30 molto_nuvoloso Molto Nuvoloso 22 14 60 1016 10 O/SO 33.3
Oggi h: 11:00 coperto Coperto 20 14 68 1016 10 O/SO 33.3
Oggi h: 10:30 coperto Coperto 20 15 72 1016 10 O/SO 31.5
Oggi h: 10:00 coperto Coperto 19 15 77 1016 10 O/SO 27.8
Oggi h: 09:30 molto_nuvoloso Molto Nuvoloso 19 16 82 1015 10 SO 29.6
Oggi h: 09:00 poco_nuvoloso Poco Nuvoloso 19 15 77 1015 10 O/SO 25.9
Oggi h: 08:30 molto_nuvoloso Molto Nuvoloso 17 15 88 1015 10 SO 24
Oggi h: 08:00 coperto Coperto 17 15 88 1015 10 SO 25.9
Oggi h: 07:30 coperto Coperto 17 15 88 1015 10 S/SO 22.2
Oggi h: 07:00 molto_nuvoloso Molto Nuvoloso 17 15 88 1014 10 SO 22.2
Oggi h: 06:30 poco_nuvoloso Poco Nuvoloso 17 15 88 1014 10 SO 24
Oggi h: 06:00 molto_nuvoloso Molto Nuvoloso 17 15 88 1014 10 SO 27.8
Oggi h: 05:30 molto_nuvoloso Molto Nuvoloso 17 15 88 1014 10 SO 29.6
Oggi h: 05:00 coperto Coperto 17 15 88 1014 10 SO 31.5
Oggi h: 04:30 molto_nuvoloso Molto Nuvoloso 17 15 88 1014 10 SO 27.8
Oggi h: 04:00 molto_nuvoloso Molto Nuvoloso 17 15 88 1014 10 SO 25.9
Oggi h: 03:30 sereno Sereno 17 15 88 1014 10 SO 24
Oggi h: 03:00 poco_nuvoloso Poco Nuvoloso 17 15 88 1014 10 SO 22.2
Oggi h: 02:30 poco_nuvoloso Poco Nuvoloso 17 16 93 1014 10 SO 22.2
Oggi h: 02:00 sereno Sereno 17 16 93 1014 10 SO 22.2
Oggi h: 01:30 sereno Sereno 17 16 93 1014 10 SO 22.2
Oggi h: 01:00 sereno Sereno 18 16 88 1014 10 SO 20.3
Oggi h: 00:30 sereno Sereno 18 16 88 1014 10 SO 22.2
Oggi h: 00:00 sereno Sereno 18 16 88 1014 10 SO 24
Ieri h: 23:30 sereno Sereno 18 16 88 1013 10 SO 22.2
Ieri h: 23:00 sereno Sereno 19 16 82 1013 10 SO 24
Ieri h: 22:30 sereno Sereno 19 17 88 1013 10 S/SO 22.2
Ieri h: 22:00 sereno Sereno 20 16 77 1013 10 SO 22.2
Ieri h: 21:30 sereno Sereno 21 16 73 1013 10 S/SO 25.9
Ieri h: 21:00 sereno Sereno 21 17 77 1013 10 S/SO 24
Ieri h: 20:30 coperto Coperto 22 16 68 1012 10 S/SO 27.8
Ieri h: 20:00 sereno Sereno 23 15 60 1012 10 S/SO 29.6